[[{"header":{"parameterUnit":"m.s-1","parameterCategory":1,"la1":30.2991,"la2":30.254,"lo1":-89.0895,"lo2":-89.0444,"dy":0.0017,"dx":0.0017,"nx":28,"ny":28,"refTime":"2026-01-03T03:00:00:Z","depth":0,"parameterNumber":2,"parameterNumberName":"U-component_of_WINDS"},"data":[0,0,0,0,0,0,0,0,0,0,0,0,0,0,0,0,0,0,0,0,0,0,0,0,0,0,0,0,0,0,0,0,0,0,0,0,0,0,0,0,0,0,0,0,0,0,0,0,0,0,0,0,0,0,0,0,0,0,-1.2155,-1.2156,0,-1.2204,-1.2205,-1.2206,-1.219,-1.2189,-1.2188,-1.2187,-1.2238,-1.224,-1.2242,0,0,0,0,0,0,0,0,0,0,0,0,0,-1.2048,-1.205,-1.2155,-1.2156,-1.2157,-1.2204,-1.2205,-1.2206,-1.219,-1.2189,-1.2188,-1.2187,-1.2237,-1.224,-1.2243,0,0,0,0,0,0,0,0,0,0,0,0,0,-1.2096,-1.2051,-1.2155,-1.2155,-1.2155,-1.2204,-1.2205,-1.2206,-1.2191,-1.2189,-1.2188,-1.2186,-1.2236,-1.224,-1.2243,-1.2296,0,0,-1.2254,-1.2255,0,0,0,0,0,0,0,0,-1.2093,-1.21,-1.2154,-1.2155,-1.2155,-1.219,-1.2186,-1.2236,-1.2191,-1.2177,-1.2187,-1.2185,-1.2223,-1.2228,-1.224,-1.2298,-1.23,-1.2254,-1.2256,-1.2257,-1.2258,0,0,0,0,0,0,0,-1.209,-1.2098,-1.2175,-1.2155,-1.2156,-1.2152,-1.2157,-1.2195,-1.2208,-1.2178,-1.2177,-1.2183,-1.2223,-1.2237,-1.2241,-1.2301,-1.2254,-1.2257,-1.2259,-1.226,-1.2404,-1.2406,0,0,0,0,0,0,-1.2086,-1.2095,-1.2173,-1.2176,-1.212,-1.2155,-1.2161,-1.218,-1.2208,-1.2211,-1.2185,-1.2182,-1.2232,-1.2237,-1.2243,-1.2307,-1.2257,-1.2261,-1.2263,-1.2402,-1.2404,-1.2406,0,0,0,0,0,0,-1.2084,-1.2093,-1.2171,-1.2135,-1.2145,-1.2159,-1.2181,-1.2182,-1.2196,-1.2213,-1.2215,-1.2196,-1.2231,-1.2238,-1.2283,-1.2308,-1.2262,-1.2265,-1.24,-1.2403,-1.2405,-1.2434,0,0,0,0,0,0,-1.2081,-1.2093,-1.2113,-1.2136,-1.2147,-1.221,-1.2182,-1.2184,-1.2202,-1.2199,-1.2224,-1.2227,-1.223,-1.2277,-1.2286,-1.2312,-1.2268,-1.2398,-1.2402,-1.2405,-1.2431,-1.2437,-1.2443,0,0,0,0,0,-1.2077,-1.2119,-1.2114,-1.2123,-1.2173,-1.2212,-1.2218,-1.2221,-1.2204,-1.2224,-1.2235,-1.2226,-1.2304,-1.2282,-1.2292,-1.2319,-1.2397,-1.2401,-1.2404,-1.2428,-1.2436,-1.2443,0,0,0,0,0,0,-1.2099,-1.2122,-1.2117,-1.2167,-1.2188,-1.2209,-1.2235,-1.2229,-1.2255,-1.2251,-1.2254,-1.2259,-1.2305,-1.2316,-1.2292,-1.2371,-1.2348,-1.2354,-1.2363,-1.237,-1.2376,-1.2373,-1.2271,0,0,0,0,0,-1.2109,-1.2139,-1.2158,-1.2201,-1.2211,-1.2221,-1.2238,-1.2239,-1.226,-1.2269,-1.2283,-1.2304,-1.2333,-1.2352,-1.238,-1.2432,-1.2437,-1.2456,-1.2462,-1.2466,-1.2472,-1.2501,-1.2509,-1.2419,-1.2419,-1.2419,0,0,-1.2132,-1.2148,-1.2167,-1.2205,-1.2221,-1.2252,-1.2229,-1.2262,-1.2285,-1.2274,-1.2317,-1.2328,-1.2351,-1.24,-1.2422,-1.2411,-1.2498,-1.2471,-1.2475,-1.2478,-1.2505,-1.2514,-1.2522,-1.2422,-1.2421,-1.2421,0,0,-1.2188,-1.2203,-1.2241,-1.2257,-1.2281,-1.2288,-1.2296,-1.2319,-1.2326,-1.2369,-1.2361,-1.2388,-1.2438,-1.2455,-1.247,-1.2533,-1.2526,-1.2542,-1.2573,-1.2601,-1.2608,-1.2615,-1.2637,-1.2645,-1.2547,-1.2547,-1.2547,0,-1.2213,-1.2259,-1.2261,-1.2295,-1.2313,-1.2303,-1.2341,-1.2357,-1.2389,-1.2401,-1.2387,-1.245,-1.2465,-1.2518,-1.2533,-1.2546,-1.2556,-1.2539,-1.2607,-1.2613,-1.2619,-1.2641,-1.265,-1.2549,-1.2549,-1.2548,-1.2548,0,-1.2288,-1.2321,-1.2348,-1.2379,-1.2399,-1.2435,-1.2442,-1.2463,-1.2461,-1.2469,-1.2513,-1.253,-1.2562,-1.2574,-1.2573,-1.2627,-1.2619,-1.2606,-1.2583,-1.263,-1.265,-1.2658,-1.2552,-1.2551,-1.255,-1.255,0,0,-1.2361,-1.2392,-1.2402,-1.2416,-1.2442,-1.2467,-1.2502,-1.2532,-1.255,-1.2572,-1.2602,-1.2644,-1.2633,-1.265,-1.2651,-1.2675,-1.2724,-1.266,-1.266,-1.2671,-1.2785,-1.2794,-1.2804,-1.2719,-1.272,-1.2722,-1.2783,0,-1.242,-1.2482,-1.2485,-1.2542,-1.2571,-1.2563,-1.2593,-1.2612,-1.2621,-1.2647,-1.2656,-1.2686,-1.2668,-1.2679,-1.2702,-1.2713,-1.2747,-1.2708,-1.2747,-1.2748,-1.2742,-1.2815,-1.2825,-1.2882,-1.2791,-1.2792,-1.2793,0,-1.2497,-1.2522,-1.2582,-1.2603,-1.2616,-1.2644,-1.2672,-1.2697,-1.2718,-1.2722,-1.2742,-1.2738,-1.2775,-1.2749,-1.2799,-1.2773,-1.2789,-1.2796,-1.2798,-1.2803,-1.2774,-1.2822,-1.29,-1.2909,-1.2806,-1.2805,-1.2804,0,-1.2545,-1.2593,-1.2635,-1.2647,-1.2673,-1.2693,-1.2704,-1.2724,-1.2742,-1.2766,-1.2778,-1.2806,-1.2822,-1.2844,-1.2848,-1.2829,-1.2899,-1.2873,-1.2903,-1.2903,-1.2919,-1.2918,-1.3002,-1.2928,-1.2928,-1.2928,-1.2928,0,-1.2611,-1.2648,-1.2656,-1.2683,-1.2724,-1.2726,-1.2767,-1.2777,-1.2794,-1.2822,-1.2816,-1.2842,-1.2846,-1.2874,-1.2877,-1.2918,-1.2925,-1.293,-1.293,-1.2931,-1.293,-1.2942,-1.2938,-1.293,-1.293,-1.2929,-1.2929,0,-1.2671,-1.2678,-1.2724,-1.2744,-1.275,-1.278,-1.2797,-1.2822,-1.2829,-1.2865,-1.2873,-1.2884,-1.2916,-1.2922,-1.296,-1.2962,-1.3011,-1.3008,-1.3004,-1.3004,-1.3034,-1.3031,-1.3129,-1.3142,-1.3058,-1.3059,-1.306,0,-1.2713,-1.2742,-1.2765,-1.2783,-1.2796,-1.2825,-1.2844,-1.2846,-1.2866,-1.2892,-1.2914,-1.2945,-1.297,-1.3021,-1.3032,-1.3061,-1.3058,-1.309,-1.3063,-1.3062,-1.3059,-1.3058,-1.3061,-1.3096,-1.3097,-1.3098,-1.3098,0,-1.2787,-1.2789,-1.2816,-1.2844,-1.2866,-1.2888,-1.291,-1.2925,-1.293,-1.2952,-1.2985,-1.3004,-1.3042,-1.3073,-1.3101,-1.3113,-1.3107,-1.3107,-1.3115,-1.3116,-1.3113,-1.3116,-1.3019,-1.3105,-1.3104,-1.3104,-1.3103,-1.3103,-1.284,-1.2865,-1.2886,-1.2916,-1.2932,-1.2951,-1.2976,-1.2986,-1.3013,-1.3044,-1.3044,-1.3079,-1.31,-1.3137,-1.3151,-1.3179,-1.3168,-1.3181,-1.3184,-1.3187,-1.319,-1.3108,-1.3184,-1.3183,-1.3183,-1.3183,-1.3183,0,-1.2915,-1.2927,-1.2955,-1.2984,-1.3008,-1.2999,-1.3022,-1.3043,-1.3074,-1.3093,-1.3118,-1.3155,-1.3185,-1.3198,-1.3228,-1.3247,-1.3245,-1.3255,-1.3254,-1.3257,-1.3197,-1.3187,-1.3256,-1.3256,-1.3256,-1.3256,-1.3256,-1.3256,-1.2956,-1.2998,-1.3002,-1.3052,-1.3064,-1.3099,-1.3113,-1.3131,-1.3146,-1.3188,-1.3213,-1.3221,-1.3238,-1.3269,-1.3296,-1.3299,-1.331,-1.3322,-1.3324,-1.3268,-1.3261,-1.3254,-1.3244,-1.3324,-1.3324,-1.3381,-1.3381,-1.3382]},{"header":{"parameterUnit":"m.s-1","parameterCategory":1,"la1":30.2991,"la2":30.254,"lo1":-89.0895,"lo2":-89.0444,"dy":0.0017,"dx":0.0017,"nx":28,"ny":28,"refTime":"2026-01-03T03:00:00:Z","depth":0,"parameterNumber":3,"parameterNumberName":"V-component_of_WINDS"},"data":[0,0,0,0,0,0,0,0,0,0,0,0,0,0,0,0,0,0,0,0,0,0,0,0,0,0,0,0,0,0,0,0,0,0,0,0,0,0,0,0,0,0,0,0,0,0,0,0,0,0,0,0,0,0,0,0,0,0,-3.702,-3.7021,0,-3.7085,-3.7086,-3.7087,-3.7038,-3.7036,-3.7033,-3.7031,-3.7094,-3.7098,-3.7102,0,0,0,0,0,0,0,0,0,0,0,0,0,-3.6851,-3.6854,-3.702,-3.7021,-3.7022,-3.7085,-3.7086,-3.7087,-3.7038,-3.7035,-3.7033,-3.703,-3.7093,-3.7097,-3.7102,0,0,0,0,0,0,0,0,0,0,0,0,0,-3.6921,-3.6855,-3.702,-3.7005,-3.7005,-3.7085,-3.7086,-3.7087,-3.7039,-3.7035,-3.7032,-3.7029,-3.7092,-3.7097,-3.7102,-3.72,0,0,-3.7119,-3.7122,0,0,0,0,0,0,0,0,-3.6917,-3.6927,-3.7007,-3.7006,-3.7006,-3.705,-3.7049,-3.7125,-3.7039,-3.7026,-3.7031,-3.7028,-3.7082,-3.7088,-3.7107,-3.7203,-3.7205,-3.712,-3.7123,-3.7125,-3.7127,0,0,0,0,0,0,0,-3.6912,-3.6924,-3.7046,-3.7008,-3.7007,-3.6994,-3.7001,-3.7063,-3.7071,-3.7027,-3.7023,-3.7032,-3.7081,-3.7102,-3.7108,-3.7206,-3.712,-3.7124,-3.7128,-3.713,-3.7385,-3.7388,0,0,0,0,0,0,-3.6909,-3.692,-3.7044,-3.7048,-3.6953,-3.7,-3.7007,-3.7039,-3.707,-3.7072,-3.7034,-3.7029,-3.7094,-3.7102,-3.711,-3.7226,-3.7125,-3.713,-3.7134,-3.7381,-3.7385,-3.7389,0,0,0,0,0,0,-3.6906,-3.6921,-3.7041,-3.6983,-3.6998,-3.7006,-3.7042,-3.7042,-3.7063,-3.7076,-3.7077,-3.7055,-3.7092,-3.7103,-3.7178,-3.7227,-3.7133,-3.7138,-3.7377,-3.7382,-3.7387,-3.7458,0,0,0,0,0,0,-3.6901,-3.692,-3.6958,-3.6984,-3.7001,-3.7109,-3.7046,-3.7046,-3.7073,-3.7067,-3.7095,-3.7097,-3.709,-3.717,-3.7184,-3.7233,-3.7142,-3.7373,-3.7379,-3.7386,-3.7452,-3.7466,-3.7477,0,0,0,0,0,-3.6895,-3.6974,-3.696,-3.6975,-3.7049,-3.7112,-3.7121,-3.7114,-3.7077,-3.7115,-3.7123,-3.7096,-3.722,-3.7178,-3.7193,-3.7245,-3.7369,-3.7377,-3.7385,-3.7446,-3.7463,-3.7477,0,0,0,0,0,0,-3.6952,-3.6978,-3.6962,-3.7052,-3.7081,-3.7104,-3.7151,-3.7132,-3.717,-3.7162,-3.715,-3.7157,-3.7236,-3.7248,-3.7201,-3.7341,-3.7289,-3.73,-3.733,-3.7346,-3.7359,-3.7354,-3.7147,0,0,0,0,0,-3.6975,-3.7026,-3.7045,-3.7123,-3.7138,-3.7142,-3.717,-3.7161,-3.719,-3.7201,-3.7215,-3.7242,-3.7287,-3.7317,-3.736,-3.7453,-3.7458,-3.7496,-3.7509,-3.7519,-3.7529,-3.7579,-3.7596,-3.7415,-3.7415,-3.7415,0,0,-3.7023,-3.7043,-3.7076,-3.7135,-3.7156,-3.7207,-3.7153,-3.7209,-3.7247,-3.7209,-3.7282,-3.7293,-3.7322,-3.7408,-3.7446,-3.742,-3.758,-3.7529,-3.7538,-3.7542,-3.7589,-3.7606,-3.7621,-3.742,-3.7419,-3.7418,0,0,-3.7137,-3.7158,-3.7225,-3.7248,-3.7281,-3.7283,-3.7299,-3.7326,-3.7332,-3.7405,-3.7377,-3.7421,-3.75,-3.7522,-3.7543,-3.7666,-3.7642,-3.768,-3.7747,-3.7796,-3.781,-3.7822,-3.7866,-3.7882,-3.769,-3.769,-3.769,0,-3.7192,-3.727,-3.7262,-3.7321,-3.7348,-3.7317,-3.7384,-3.7406,-3.745,-3.7469,-3.744,-3.7537,-3.7555,-3.7645,-3.7675,-3.7693,-3.7711,-3.7677,-3.7809,-3.7821,-3.7833,-3.7874,-3.789,-3.7694,-3.7694,-3.7694,-3.7693,0,-3.7336,-3.7391,-3.7441,-3.7486,-3.7518,-3.7581,-3.7581,-3.7614,-3.7603,-3.7608,-3.7683,-3.7703,-3.7749,-3.777,-3.7759,-3.7858,-3.7841,-3.7811,-3.7758,-3.7855,-3.7893,-3.7909,-3.7701,-3.7699,-3.7698,-3.7697,0,0,-3.7487,-3.7528,-3.7546,-3.7566,-3.7601,-3.7642,-3.7703,-3.7749,-3.7778,-3.7809,-3.786,-3.7927,-3.7899,-3.7924,-3.7915,-3.7958,-3.8054,-3.7923,-3.7923,-3.7946,-3.8163,-3.8186,-3.8204,-3.8038,-3.8041,-3.8044,-3.8161,0,-3.7603,-3.7711,-3.7705,-3.7806,-3.7856,-3.7827,-3.7881,-3.7907,-3.7913,-3.7955,-3.7962,-3.801,-3.797,-3.7984,-3.8026,-3.8034,-3.8097,-3.8025,-3.8084,-3.8086,-3.8077,-3.8224,-3.8248,-3.8358,-3.8176,-3.8178,-3.818,0,-3.7752,-3.779,-3.7897,-3.7924,-3.7944,-3.7992,-3.8034,-3.8075,-3.8104,-3.8105,-3.8133,-3.8118,-3.8178,-3.8125,-3.8208,-3.8159,-3.8182,-3.819,-3.8194,-3.8199,-3.8139,-3.8233,-3.8393,-3.8409,-3.8204,-3.8202,-3.82,0,-3.7851,-3.7929,-3.8003,-3.8021,-3.8054,-3.8089,-3.8104,-3.813,-3.8158,-3.8194,-3.8212,-3.8254,-3.8277,-3.8309,-3.8305,-3.8267,-3.8389,-3.8335,-3.8391,-3.8392,-3.8418,-3.8417,-3.8584,-3.8434,-3.8434,-3.8434,-3.8433,0,-3.798,-3.8046,-3.8048,-3.8093,-3.8166,-3.8158,-3.823,-3.8241,-3.8265,-3.8311,-3.8288,-3.8332,-3.8324,-3.8367,-3.8364,-3.8433,-3.8443,-3.8445,-3.8444,-3.8447,-3.8447,-3.8462,-3.8455,-3.8438,-3.8437,-3.8436,-3.8436,0,-3.8103,-3.8107,-3.8185,-3.8211,-3.8219,-3.8271,-3.8293,-3.8335,-3.834,-3.8398,-3.8411,-3.8418,-3.8468,-3.8467,-3.8523,-3.8521,-3.8606,-3.8595,-3.8597,-3.8594,-3.865,-3.8645,-3.8833,-3.8857,-3.8692,-3.8694,-3.8695,0,-3.8185,-3.8236,-3.8267,-3.8297,-3.8315,-3.8363,-3.8392,-3.8386,-3.8417,-3.8454,-3.8492,-3.8539,-3.8577,-3.8658,-3.8667,-3.871,-3.87,-3.8763,-3.8706,-3.8708,-3.87,-3.8697,-3.8702,-3.8774,-3.8776,-3.8777,-3.8778,0,-3.8331,-3.833,-3.8373,-3.8418,-3.8453,-3.8488,-3.8519,-3.8544,-3.8542,-3.8577,-3.8629,-3.8658,-3.8716,-3.8764,-3.8805,-3.8819,-3.8798,-3.8796,-3.8811,-3.8816,-3.8814,-3.8815,-3.8627,-3.8792,-3.879,-3.8789,-3.8789,-3.8788,-3.8435,-3.8479,-3.8508,-3.8557,-3.858,-3.861,-3.8652,-3.8662,-3.8705,-3.8753,-3.8746,-3.8803,-3.883,-3.8883,-3.8901,-3.8945,-3.8923,-3.8945,-3.895,-3.8956,-3.8962,-3.8808,-3.8952,-3.8952,-3.8951,-3.8951,-3.8951,0,-3.8579,-3.8597,-3.8642,-3.8688,-3.8726,-3.8705,-3.8738,-3.8771,-3.8822,-3.885,-3.8888,-3.8947,-3.8993,-3.9006,-3.905,-3.9082,-3.9074,-3.9094,-3.9091,-3.9095,-3.8979,-3.8962,-3.91,-3.91,-3.91,-3.91,-3.91,-3.91,-3.8659,-3.8731,-3.8734,-3.8818,-3.8834,-3.8891,-3.8912,-3.894,-3.8961,-3.9029,-3.9067,-3.9076,-3.9098,-3.9143,-3.9184,-3.9186,-3.9203,-3.9228,-3.9226,-3.9118,-3.9103,-3.9089,-3.9072,-3.9231,-3.9232,-3.9338,-3.9339,-3.934]}]]